#timestamp,LO_Frequency,Hit,StdDev 
1704726015.5,286046999.8,N
1704726035.3,286047001.5,N
1704726055.1,286047001.4,N
1704726075.9,286047002.3,N
1704726095.7,286047002.1,N
1704726115.6,286047002.5,N
1704726135.4,286047001.8,N
1704726155.2,286047002.2,N
1704726175.1,286047001.6,N
1704726176.0,286047001.6,N
1704726195.8,286047003.2,N
1704726215.6,286047001.4,N
1704726235.5,286047000.1,N
1704726255.3,286047002.6,N
1704726275.2,286047001.4,N
1704726295.9,286047000.0,N
1704726315.7,286047000.4,N
1704726335.6,286047000.9,N
1704726355.4,286046999.9,N
1704726375.2,286047002.8,N
1704726395.1,286047001.3,N
1704726396.0,286047001.3,N
1704726415.8,286047002.7,N
1704726435.7,286047002.8,N
1704726455.5,286047002.0,N
1704726475.3,286047002.4,N
1704726495.2,286047002.0,N
1704726515.0,286047001.4,N
1704726515.9,286047001.4,N
1704726535.8,286047004.0,Y
1704726555.6,286046999.7,P
1704726575.4,286046998.4,N
1704726595.3,286047000.5,N
1704726615.1,286046998.1,N
1704726635.8,286046999.3,N
1704726655.7,286046998.8,N
1704726675.5,286047001.1,N
1704726695.4,286046999.9,N
1704726715.2,286046999.8,N
1704726735.0,286047002.8,N
1704726735.9,286047002.8,N
1704726755.8,286047001.6,N
1704726775.6,286047002.5,N
1704726795.4,286047002.0,N
1704726815.3,286047004.2,N
1704726835.1,286047006.0,Y
1704726855.9,286047003.7,P
1704726875.7,286047005.0,P
1704726895.5,286047007.5,P
1704726915.4,286047006.1,N
1704726935.2,286047008.5,Y
1704726955.0,286047002.9,P
1704726956.0,286047002.9,P
1704726975.8,286047004.7,P
1704726995.6,286047007.6,Y
1704727015.5,286047003.6,P
1704727035.3,286047004.2,P
1704727055.1,286047003.4,P
1704727075.9,286047005.1,Y
1704727095.7,286047000.3,P
1704727115.6,286047002.4,N
1704727135.4,286047001.8,N
1704727155.2,286047001.3,N
1704727175.1,286047002.0,N
1704727176.0,286047002.0,N
1704727195.8,286047002.1,N
1704727215.6,286047004.4,Y
1704727235.5,286047000.9,P
1704727255.3,286047002.1,P
1704727275.2,286047001.3,N
1704727295.9,286047001.8,Y
1704727315.7,286047000.1,P
1704727335.6,286047000.9,N
1704727355.4,286047002.2,P
1704727375.2,286047002.5,Y
1704727395.1,286047000.0,P
1704727396.0,286047000.0,N
1704727415.8,286047000.8,N
1704727435.7,286046998.1,Y
1704727455.5,286047000.9,P
1704727475.3,286047000.0,N
1704727495.2,286047002.3,P
1704727515.0,286047002.1,N
1704727515.9,286047002.1,N
1704727535.7,286047002.4,N
1704727555.6,286047004.0,Y
1704727575.4,286046999.7,P
1704727595.3,286047000.6,N
1704727615.1,286047000.2,N
1704727635.8,286047002.8,Y
1704727655.7,286047002.6,P
1704727675.5,286047000.1,N
1704727695.4,286047000.4,N
1704727715.2,286047000.8,N
1704727735.0,286047000.6,N
1704727735.9,286047000.6,N
1704727755.8,286047002.1,N
1704727775.6,286047002.0,N
1704727795.4,286047004.3,Y
1704727815.3,286047000.7,P
1704727835.1,286047002.5,P
1704727855.9,286047001.2,N
1704727875.7,286047000.2,N
1704727895.5,286046999.9,N
1704727915.4,286047000.3,N
1704727935.2,286047001.9,N
1704727955.0,286047001.8,N
1704727955.9,286047001.8,N
1704727975.8,286047002.4,N
1704727995.6,286047002.5,N
1704728015.5,286047004.3,Y
1704728035.3,286047000.4,P
1704728055.1,286047000.5,N
1704728075.9,286047000.6,N
1704728095.7,286047000.6,N
1704728115.5,286047000.4,N
1704728135.4,286046998.6,Y
1704728155.2,286046998.8,P
1704728175.1,286046996.9,P
1704728176.0,286046996.9,N
1704728195.8,286046998.3,N
1704728215.6,286046998.5,N
1704728235.5,286046998.9,N
1704728255.3,286046999.0,N
1704728275.1,286046999.2,N
1704728295.9,286046995.4,Y
1704728315.7,286046998.8,P
1704728335.6,286046998.3,P
1704728355.4,286047002.2,P
1704728375.2,286047000.0,N
1704728395.1,286046998.9,N
1704728396.0,286046998.9,N
1704728415.8,286047001.0,N
1704728435.6,286047000.6,N
1704728455.5,286046998.2,N
1704728475.3,286046998.2,N
1704728495.2,286047001.1,N
1704728515.9,286046998.2,N
1704728535.7,286047000.6,N
1704728555.6,286046998.4,N
1704728575.4,286046998.3,N
1704728595.2,286047000.7,N
1704728615.1,286047000.6,N
1704728616.0,286047000.6,N
1704728635.8,286046999.9,N
1704728655.7,286047002.7,N
1704728675.5,286047002.7,N
1704728695.3,286047001.1,N
1704728715.2,286047000.3,N
1704728735.0,286046999.7,N
1704728735.9,286046999.7,N
1704728755.7,286047001.7,N
1704728775.6,286047000.1,N
1704728795.4,286047002.7,N
1704728815.3,286047000.6,N
1704728835.1,286047002.8,N
1704728836.0,286047002.8,N
1704728855.8,286046999.3,N
1704728875.7,286047001.1,N
1704728895.5,286047000.9,N
1704728915.3,286047002.3,N
1704728935.2,286047000.9,N
1704728955.0,286046999.7,N
1704728955.9,286046999.7,N
1704728975.8,286047001.3,N
1704728995.6,286047003.8,N
1704729015.4,286047001.3,N
1704729035.3,286047001.7,N
1704729055.1,286047002.6,N
1704729075.8,286046999.9,N
1704729095.7,286046998.6,N
1704729115.5,286047000.4,N
1704729135.4,286047000.5,N
1704729155.2,286046998.2,N
1704729175.0,286046998.9,N
1704729175.9,286046998.9,N
1704729195.8,286046998.3,N
1704729215.6,286047000.0,N
1704729235.4,286047001.0,N
1704729255.3,286046998.5,N
1704729275.1,286047001.0,N
1704729295.9,286047002.8,N
1704729315.7,286047000.3,N
1704729335.5,286047000.5,N
1704729355.4,286047000.4,N
1704729375.2,286047000.4,N
1704729395.0,286047000.3,N
1704729395.9,286047000.3,N
1704729415.8,286046999.4,N
1704729435.6,286046999.3,N
1704729455.4,286046999.1,N
1704729475.3,286046998.5,N
1704729495.1,286046998.7,N
1704729515.9,286046998.2,N
1704729535.7,286046999.4,N
1704729555.5,286047000.6,N
1704729575.4,286047000.8,N
1704729595.2,286046998.1,N
